owner,sensor,date,latitude,longitude,vertical_datum,direction_of_sea_water_velocity,sea_water_speed,upward_sea_water_velocity,qcFlag 
TABS,ioos:station:wmo:42048:1,2015-08-01T00:00:00Z,27.9396,-96.8429,2.0,332.6503986,6.529931087,-99999.0,'11133222,11111222,99999999' 
TABS,ioos:station:wmo:42048:1,2015-08-01T00:30:00Z,27.9396,-96.8429,2.0,290.208942,1.736922566,-99999.0,'11133222,11111222,99999999' 
TABS,ioos:station:wmo:42048:1,2015-08-01T01:00:00Z,27.9396,-96.8429,2.0,322.5572826,6.398320092,-99999.0,'11133222,11111222,99999999' 
TABS,ioos:station:wmo:42048:1,2015-08-01T01:30:00Z,27.9396,-96.8429,2.0,318.930482,3.713973613,-99999.0,'11133222,11111222,99999999' 
TABS,ioos:station:wmo:42048:1,2015-08-01T02:00:00Z,27.9396,-96.8429,2.0,312.7478935,11.8744263,-99999.0,'11111222,11111222,99999999' 
TABS,ioos:station:wmo:42048:1,2015-08-01T02:30:00Z,27.9396,-96.8429,2.0,296.56541,2.571478174,-99999.0,'11133222,11111222,99999999' 
TABS,ioos:station:wmo:42048:1,2015-08-01T03:00:00Z,27.9396,-96.8429,2.0,316.6163786,4.513136382,-99999.0,'11133222,11111222,99999999' 
TABS,ioos:station:wmo:42048:1,2015-08-01T03:30:00Z,27.9396,-96.8429,2.0,332.9694134,3.850636311,-99999.0,'11133222,11111222,99999999' 
TABS,ioos:station:wmo:42048:1,2015-08-01T04:00:00Z,27.9396,-96.8429,2.0,39.01716272,3.256286228,-99999.0,'11133222,11111222,99999999' 
TABS,ioos:station:wmo:42048:1,2015-08-01T04:30:00Z,27.9396,-96.8429,2.0,354.2624892,4.201047488,-99999.0,'11133222,11111222,99999999' 
TABS,ioos:station:wmo:42048:1,2015-08-01T05:00:00Z,27.9396,-96.8429,2.0,352.5259767,3.45939301,-99999.0,'11133222,11111222,99999999' 
TABS,ioos:station:wmo:42048:1,2015-08-01T05:30:00Z,27.9396,-96.8429,2.0,54.59546509,2.502818411,-99999.0,'11133222,11111222,99999999' 
TABS,ioos:station:wmo:42048:1,2015-08-01T06:00:00Z,27.9396,-96.8429,2.0,49.3988003,1.751713447,-99999.0,'11133222,11111222,99999999' 
TABS,ioos:station:wmo:42048:1,2015-08-01T06:30:00Z,27.9396,-96.8429,2.0,41.5635017,2.71309786,-99999.0,'11133222,11111222,99999999' 
TABS,ioos:station:wmo:42048:1,2015-08-01T07:00:00Z,27.9396,-96.8429,2.0,93.81406592,1.20266371,-99999.0,'11133222,11111222,99999999' 
TABS,ioos:station:wmo:42048:1,2015-08-01T07:30:00Z,27.9396,-96.8429,2.0,121.124562,4.275476582,-99999.0,'11133222,11111222,99999999' 
TABS,ioos:station:wmo:42048:1,2015-08-01T08:00:00Z,27.9396,-96.8429,2.0,252.8968901,0.54405882,-99999.0,'11133222,11111222,99999999' 
TABS,ioos:station:wmo:42048:1,2015-08-01T08:30:00Z,27.9396,-96.8429,2.0,187.5028594,2.067704041,-99999.0,'11133222,11111222,99999999' 
TABS,ioos:station:wmo:42048:1,2015-08-01T09:00:00Z,27.9396,-96.8429,2.0,141.6848444,2.854908055,-99999.0,'11133222,11111222,99999999' 
TABS,ioos:station:wmo:42048:1,2015-08-01T09:30:00Z,27.9396,-96.8429,2.0,163.7057802,1.354400236,-99999.0,'11133222,11111222,99999999' 
TABS,ioos:station:wmo:42048:1,2015-08-01T10:00:00Z,27.9396,-96.8429,2.0,184.8042945,4.65636124,-99999.0,'11133222,11111222,99999999' 
TABS,ioos:station:wmo:42048:1,2015-08-01T10:30:00Z,27.9396,-96.8429,2.0,194.1658043,5.352774981,-99999.0,'11133222,11111222,99999999' 
TABS,ioos:station:wmo:42048:1,2015-08-01T11:00:00Z,27.9396,-96.8429,2.0,216.3123841,5.75827231,-99999.0,'11133222,11111222,99999999' 
TABS,ioos:station:wmo:42048:1,2015-08-01T11:30:00Z,27.9396,-96.8429,2.0,174.4095397,6.159293791,-99999.0,'11133222,11111222,99999999' 
TABS,ioos:station:wmo:42048:1,2015-08-01T12:00:00Z,27.9396,-96.8429,2.0,165.7212423,12.04200149,-99999.0,'11111222,11111222,99999999' 
TABS,ioos:station:wmo:42048:1,2015-08-01T12:30:00Z,27.9396,-96.8429,2.0,119.4796729,11.25751305,-99999.0,'11111222,11111222,99999999' 
TABS,ioos:station:wmo:42048:1,2015-08-01T13:00:00Z,27.9396,-96.8429,2.0,151.7240089,7.789460829,-99999.0,'11133222,11111222,99999999' 
TABS,ioos:station:wmo:42048:1,2015-08-01T13:30:00Z,27.9396,-96.8429,2.0,95.53805924,12.22707242,-99999.0,'11111222,11111222,99999999' 
TABS,ioos:station:wmo:42048:1,2015-08-01T14:00:00Z,27.9396,-96.8429,2.0,180.6151129,8.38048328,-99999.0,'11133222,11111222,99999999' 
TABS,ioos:station:wmo:42048:1,2015-08-01T14:30:00Z,27.9396,-96.8429,2.0,197.522533,10.32930782,-99999.0,'11111222,11111222,99999999' 
TABS,ioos:station:wmo:42048:1,2015-08-01T15:00:00Z,27.9396,-96.8429,2.0,190.8148525,15.6683024,-99999.0,'11111222,11111222,99999999' 
TABS,ioos:station:wmo:42048:1,2015-08-01T15:30:00Z,27.9396,-96.8429,2.0,187.3793178,16.19413474,-99999.0,'11111222,11111222,99999999' 
TABS,ioos:station:wmo:42048:1,2015-08-01T16:00:00Z,27.9396,-96.8429,2.0,191.239942,24.16348692,-99999.0,'11111222,11111222,99999999' 
TABS,ioos:station:wmo:42048:1,2015-08-01T16:30:00Z,27.9396,-96.8429,2.0,210.1630399,22.58856791,-99999.0,'11111222,11111222,99999999' 
TABS,ioos:station:wmo:42048:1,2015-08-01T17:00:00Z,27.9396,-96.8429,2.0,247.4501894,18.7753988,-99999.0,'11111222,11111222,99999999' 
TABS,ioos:station:wmo:42048:1,2015-08-01T17:30:00Z,27.9396,-96.8429,2.0,227.9708406,22.50918257,-99999.0,'11111222,11111222,99999999' 
TABS,ioos:station:wmo:42048:1,2015-08-01T18:00:00Z,27.9396,-96.8429,2.0,217.8505435,22.89735574,-99999.0,'11111222,11111222,99999999' 
TABS,ioos:station:wmo:42048:1,2015-08-01T18:30:00Z,27.9396,-96.8429,2.0,239.1920933,20.13057873,-99999.0,'11111222,11111222,99999999' 
TABS,ioos:station:wmo:42048:1,2015-08-01T19:00:00Z,27.9396,-96.8429,2.0,231.5649271,22.26430327,-99999.0,'11111222,11111222,99999999' 
TABS,ioos:station:wmo:42048:1,2015-08-01T19:30:00Z,27.9396,-96.8429,2.0,257.4210626,23.7397936,-99999.0,'11111222,11111222,99999999' 
TABS,ioos:station:wmo:42048:1,2015-08-01T20:00:00Z,27.9396,-96.8429,2.0,246.9525344,21.35443982,-99999.0,'11111222,11111222,99999999' 
TABS,ioos:station:wmo:42048:1,2015-08-01T20:30:00Z,27.9396,-96.8429,2.0,250.3693732,22.89038444,-99999.0,'11111222,11111222,99999999' 
TABS,ioos:station:wmo:42048:1,2015-08-01T21:00:00Z,27.9396,-96.8429,2.0,243.6156183,28.30876189,-99999.0,'11111222,11111222,99999999' 
TABS,ioos:station:wmo:42048:1,2015-08-01T21:30:00Z,27.9396,-96.8429,2.0,267.2264171,25.00928827,-99999.0,'11111222,11111222,99999999' 
TABS,ioos:station:wmo:42048:1,2015-08-01T22:00:00Z,27.9396,-96.8429,2.0,252.0549559,21.0647027,-99999.0,'11111222,11111222,99999999' 
TABS,ioos:station:wmo:42048:1,2015-08-01T22:30:00Z,27.9396,-96.8429,2.0,258.8592867,16.56208018,-99999.0,'11111222,11111222,99999999' 
TABS,ioos:station:wmo:42048:1,2015-08-01T23:00:00Z,27.9396,-96.8429,2.0,266.4056122,20.25984452,-99999.0,'11111222,11111222,99999999' 
TABS,ioos:station:wmo:42048:1,2015-08-01T23:30:00Z,27.9396,-96.8429,2.0,257.8303593,19.87664459,-99999.0,'11111222,11111222,99999999' 
TABS,ioos:station:wmo:42048:1,2015-08-02T00:00:00Z,27.9396,-96.8429,2.0,266.6989878,17.36881113,-99999.0,'11111222,11111222,99999999' 
TABS,ioos:station:wmo:42048:1,2015-08-02T00:30:00Z,27.9396,-96.8429,2.0,263.4542491,19.7386575,-99999.0,'11111222,11111222,99999999' 
TABS,ioos:station:wmo:42048:1,2015-08-02T01:00:00Z,27.9396,-96.8429,2.0,256.2045178,15.55879815,-99999.0,'11111222,11111222,99999999' 
TABS,ioos:station:wmo:42048:1,2015-08-02T01:30:00Z,27.9396,-96.8429,2.0,259.6711976,13.05148267,-99999.0,'11111222,11111222,99999999' 
TABS,ioos:station:wmo:42048:1,2015-08-02T02:00:00Z,27.9396,-96.8429,2.0,285.1777164,14.8582536,-99999.0,'11111222,11111222,99999999' 
TABS,ioos:station:wmo:42048:1,2015-08-02T02:30:00Z,27.9396,-96.8429,2.0,243.1476359,16.0730582,-99999.0,'11111222,11111222,99999999' 
TABS,ioos:station:wmo:42048:1,2015-08-02T03:00:00Z,27.9396,-96.8429,2.0,262.7565704,16.25974785,-99999.0,'11111222,11111222,99999999' 
TABS,ioos:station:wmo:42048:1,2015-08-02T03:30:00Z,27.9396,-96.8429,2.0,247.8963219,16.21142807,-99999.0,'11111222,11111222,99999999' 
TABS,ioos:station:wmo:42048:1,2015-08-02T04:00:00Z,27.9396,-96.8429,2.0,253.7964588,15.26640757,-99999.0,'11111222,11111222,99999999' 
TABS,ioos:station:wmo:42048:1,2015-08-02T04:30:00Z,27.9396,-96.8429,2.0,253.8301822,16.15922028,-99999.0,'11111222,11111222,99999999' 
TABS,ioos:station:wmo:42048:1,2015-08-02T05:00:00Z,27.9396,-96.8429,2.0,255.768624,17.12553941,-99999.0,'11111222,11111222,99999999' 
TABS,ioos:station:wmo:42048:1,2015-08-02T05:30:00Z,27.9396,-96.8429,2.0,240.9138682,16.06604183,-99999.0,'11111222,11111222,99999999' 
TABS,ioos:station:wmo:42048:1,2015-08-02T06:00:00Z,27.9396,-96.8429,2.0,237.5439774,14.16200904,-99999.0,'11111222,11111222,99999999' 
TABS,ioos:station:wmo:42048:1,2015-08-02T06:30:00Z,27.9396,-96.8429,2.0,247.7878003,14.25805386,-99999.0,'11111222,11111222,99999999' 
TABS,ioos:station:wmo:42048:1,2015-08-02T07:00:00Z,27.9396,-96.8429,2.0,253.3736509,15.72752047,-99999.0,'11111222,11111222,99999999' 
TABS,ioos:station:wmo:42048:1,2015-08-02T07:30:00Z,27.9396,-96.8429,2.0,242.2920933,14.13028662,-99999.0,'11111222,11111222,99999999' 
TABS,ioos:station:wmo:42048:1,2015-08-02T08:00:00Z,27.9396,-96.8429,2.0,239.1169163,14.55338449,-99999.0,'11111222,11111222,99999999' 
TABS,ioos:station:wmo:42048:1,2015-08-02T08:30:00Z,27.9396,-96.8429,2.0,237.0822733,13.98526367,-99999.0,'11111222,11111222,99999999' 
TABS,ioos:station:wmo:42048:1,2015-08-02T09:00:00Z,27.9396,-96.8429,2.0,241.4800049,12.58744215,-99999.0,'11111222,11111222,99999999' 
TABS,ioos:station:wmo:42048:1,2015-08-02T09:30:00Z,27.9396,-96.8429,2.0,231.934017,14.75921407,-99999.0,'11111222,11111222,99999999' 
TABS,ioos:station:wmo:42048:1,2015-08-02T10:00:00Z,27.9396,-96.8429,2.0,234.8514706,9.918477706,-99999.0,'11133222,11111222,99999999' 
TABS,ioos:station:wmo:42048:1,2015-08-02T10:30:00Z,27.9396,-96.8429,2.0,243.7260448,10.54990521,-99999.0,'11111222,11111222,99999999' 
TABS,ioos:station:wmo:42048:1,2015-08-02T11:00:00Z,27.9396,-96.8429,2.0,245.8178477,11.9375123,-99999.0,'11111222,11111222,99999999' 
TABS,ioos:station:wmo:42048:1,2015-08-02T11:30:00Z,27.9396,-96.8429,2.0,246.7539118,14.36624168,-99999.0,'11111222,11111222,99999999' 
TABS,ioos:station:wmo:42048:1,2015-08-02T12:00:00Z,27.9396,-96.8429,2.0,234.3340033,16.65367827,-99999.0,'11111222,11111222,99999999' 
TABS,ioos:station:wmo:42048:1,2015-08-02T12:30:00Z,27.9396,-96.8429,2.0,240.2043754,18.33358121,-99999.0,'11111222,11111222,99999999' 
TABS,ioos:station:wmo:42048:1,2015-08-02T13:00:00Z,27.9396,-96.8429,2.0,217.8773467,18.87691977,-99999.0,'11111222,11111222,99999999' 
TABS,ioos:station:wmo:42048:1,2015-08-02T13:30:00Z,27.9396,-96.8429,2.0,201.9500228,20.01059719,-99999.0,'11111222,11111222,99999999' 
TABS,ioos:station:wmo:42048:1,2015-08-02T14:00:00Z,27.9396,-96.8429,2.0,211.9751801,20.30002217,-99999.0,'11111222,11111222,99999999' 
TABS,ioos:station:wmo:42048:1,2015-08-02T14:30:00Z,27.9396,-96.8429,2.0,218.1486512,19.44284444,-99999.0,'11111222,11111222,99999999' 
TABS,ioos:station:wmo:42048:1,2015-08-02T15:00:00Z,27.9396,-96.8429,2.0,209.3776206,23.2383842,-99999.0,'11111222,11111222,99999999' 
TABS,ioos:station:wmo:42048:1,2015-08-02T15:30:00Z,27.9396,-96.8429,2.0,210.1358512,24.33990345,-99999.0,'11111222,11111222,99999999' 
TABS,ioos:station:wmo:42048:1,2015-08-02T16:00:00Z,27.9396,-96.8429,2.0,225.5774622,25.94506697,-99999.0,'11111222,11111222,99999999' 
TABS,ioos:station:wmo:42048:1,2015-08-02T16:30:00Z,27.9396,-96.8429,2.0,229.5090361,25.27244547,-99999.0,'11111222,11111222,99999999' 
TABS,ioos:station:wmo:42048:1,2015-08-02T17:00:00Z,27.9396,-96.8429,2.0,251.4677013,24.2894895,-99999.0,'11111222,11111222,99999999' 
TABS,ioos:station:wmo:42048:1,2015-08-02T17:30:00Z,27.9396,-96.8429,2.0,230.8601166,27.97794846,-99999.0,'11111222,11111222,99999999' 
TABS,ioos:station:wmo:42048:1,2015-08-02T18:00:00Z,27.9396,-96.8429,2.0,243.2471969,27.34725763,-99999.0,'11111222,11111222,99999999' 
TABS,ioos:station:wmo:42048:1,2015-08-02T18:30:00Z,27.9396,-96.8429,2.0,252.8469686,29.53358258,-99999.0,'11111222,11111222,99999999' 
TABS,ioos:station:wmo:42048:1,2015-08-02T19:00:00Z,27.9396,-96.8429,2.0,266.4284302,27.61361983,-99999.0,'11111222,11111222,99999999' 
TABS,ioos:station:wmo:42048:1,2015-08-02T19:30:00Z,27.9396,-96.8429,2.0,266.9450777,28.1499929,-99999.0,'11111222,11111222,99999999' 
TABS,ioos:station:wmo:42048:1,2015-08-02T20:00:00Z,27.9396,-96.8429,2.0,268.6575098,24.33667603,-99999.0,'11111222,11111222,99999999' 
TABS,ioos:station:wmo:42048:1,2015-08-02T20:30:00Z,27.9396,-96.8429,2.0,260.354417,23.69494672,-99999.0,'11111222,11111222,99999999' 
TABS,ioos:station:wmo:42048:1,2015-08-02T21:00:00Z,27.9396,-96.8429,2.0,264.2495267,24.55354353,-99999.0,'11111222,11111222,99999999' 
TABS,ioos:station:wmo:42048:1,2015-08-02T21:30:00Z,27.9396,-96.8429,2.0,278.7041586,22.60026549,-99999.0,'11111222,11111222,99999999' 
TABS,ioos:station:wmo:42048:1,2015-08-02T22:00:00Z,27.9396,-96.8429,2.0,256.554186,26.57846685,-99999.0,'11111222,11111222,99999999' 
TABS,ioos:station:wmo:42048:1,2015-08-02T22:30:00Z,27.9396,-96.8429,2.0,271.4064863,22.00662627,-99999.0,'11111222,11111222,99999999' 
TABS,ioos:station:wmo:42048:1,2015-08-02T23:00:00Z,27.9396,-96.8429,2.0,274.5472373,16.02041822,-99999.0,'11111222,11111222,99999999' 
TABS,ioos:station:wmo:42048:1,2015-08-02T23:30:00Z,27.9396,-96.8429,2.0,272.5465647,18.90866732,-99999.0,'11111222,11111222,99999999' 
TABS,ioos:station:wmo:42048:1,2015-08-03T00:00:00Z,27.9396,-96.8429,2.0,256.4064941,16.9343438,-99999.0,'11111222,11111222,99999999' 
TABS,ioos:station:wmo:42048:1,2015-08-03T00:30:00Z,27.9396,-96.8429,2.0,252.8566638,15.70786427,-99999.0,'11111222,11111222,99999999' 
TABS,ioos:station:wmo:42048:1,2015-08-03T01:00:00Z,27.9396,-96.8429,2.0,280.5526654,12.01316361,-99999.0,'11111222,11111222,99999999' 
TABS,ioos:station:wmo:42048:1,2015-08-03T01:30:00Z,27.9396,-96.8429,2.0,281.2628771,9.472412575,-99999.0,'11133222,11111222,99999999' 
TABS,ioos:station:wmo:42048:1,2015-08-03T02:00:00Z,27.9396,-96.8429,2.0,255.4106945,12.06913419,-99999.0,'11111222,11111222,99999999' 
TABS,ioos:station:wmo:42048:1,2015-08-03T02:30:00Z,27.9396,-96.8429,2.0,252.0752683,13.48448738,-99999.0,'11111222,11111222,99999999' 
TABS,ioos:station:wmo:42048:1,2015-08-03T03:00:00Z,27.9396,-96.8429,2.0,255.6613042,12.88124606,-99999.0,'11111222,11111222,99999999' 
TABS,ioos:station:wmo:42048:1,2015-08-03T03:30:00Z,27.9396,-96.8429,2.0,245.8514782,13.78644262,-99999.0,'11111222,11111222,99999999' 
TABS,ioos:station:wmo:42048:1,2015-08-03T04:00:00Z,27.9396,-96.8429,2.0,265.3727131,10.78514719,-99999.0,'11111222,11111222,99999999' 
TABS,ioos:station:wmo:42048:1,2015-08-03T04:30:00Z,27.9396,-96.8429,2.0,249.4593203,8.521766249,-99999.0,'11133222,11111222,99999999' 
TABS,ioos:station:wmo:42048:1,2015-08-03T05:00:00Z,27.9396,-96.8429,2.0,253.3003739,8.561051337,-99999.0,'11133222,11111222,99999999' 
TABS,ioos:station:wmo:42048:1,2015-08-03T05:30:00Z,27.9396,-96.8429,2.0,227.7878537,8.721880531,-99999.0,'11133222,11111222,99999999' 
TABS,ioos:station:wmo:42048:1,2015-08-03T06:00:00Z,27.9396,-96.8429,2.0,219.4165279,10.75662587,-99999.0,'11111222,11111222,99999999' 
TABS,ioos:station:wmo:42048:1,2015-08-03T06:30:00Z,27.9396,-96.8429,2.0,215.0766473,9.396600449,-99999.0,'11133222,11111222,99999999' 
TABS,ioos:station:wmo:42048:1,2015-08-03T07:00:00Z,27.9396,-96.8429,2.0,217.6252348,13.49717378,-99999.0,'11111222,11111222,99999999' 
TABS,ioos:station:wmo:42048:1,2015-08-03T07:30:00Z,27.9396,-96.8429,2.0,240.8636406,9.571060547,-99999.0,'11133222,11111222,99999999' 
TABS,ioos:station:wmo:42048:1,2015-08-03T08:00:00Z,27.9396,-96.8429,2.0,253.3490074,10.15583576,-99999.0,'11111222,11111222,99999999' 
TABS,ioos:station:wmo:42048:1,2015-08-03T08:30:00Z,27.9396,-96.8429,2.0,215.6149575,8.586058467,-99999.0,'11133222,11111222,99999999' 
TABS,ioos:station:wmo:42048:1,2015-08-03T09:00:00Z,27.9396,-96.8429,2.0,245.0413039,10.04836803,-99999.0,'11111222,11111222,99999999' 
TABS,ioos:station:wmo:42048:1,2015-08-03T09:30:00Z,27.9396,-96.8429,2.0,228.3499762,8.832717589,-99999.0,'11133222,11111222,99999999' 
TABS,ioos:station:wmo:42048:1,2015-08-03T10:00:00Z,27.9396,-96.8429,2.0,229.7357457,9.7631245,-99999.0,'11133222,11111222,99999999' 
TABS,ioos:station:wmo:42048:1,2015-08-03T10:30:00Z,27.9396,-96.8429,2.0,241.5298176,7.803717063,-99999.0,'11133222,11111222,99999999' 
TABS,ioos:station:wmo:42048:1,2015-08-03T11:00:00Z,27.9396,-96.8429,2.0,193.5907062,7.489726297,-99999.0,'11133222,11111222,99999999' 
TABS,ioos:station:wmo:42048:1,2015-08-03T11:30:00Z,27.9396,-96.8429,2.0,212.1882285,9.949190922,-99999.0,'11133222,11111222,99999999' 
TABS,ioos:station:wmo:42048:1,2015-08-03T12:00:00Z,27.9396,-96.8429,2.0,215.3398138,10.1136047,-99999.0,'11111222,11111222,99999999' 
TABS,ioos:station:wmo:42048:1,2015-08-03T12:30:00Z,27.9396,-96.8429,2.0,223.9878395,8.408810855,-99999.0,'11133222,11111222,99999999' 
TABS,ioos:station:wmo:42048:1,2015-08-03T13:00:00Z,27.9396,-96.8429,2.0,219.7108178,12.42727645,-99999.0,'11111222,11111222,99999999' 
TABS,ioos:station:wmo:42048:1,2015-08-03T13:30:00Z,27.9396,-96.8429,2.0,211.4781144,12.79259551,-99999.0,'11111222,11111222,99999999' 
TABS,ioos:station:wmo:42048:1,2015-08-03T14:00:00Z,27.9396,-96.8429,2.0,213.2576383,8.825531145,-99999.0,'11133222,11111222,99999999' 
TABS,ioos:station:wmo:42048:1,2015-08-03T14:30:00Z,27.9396,-96.8429,2.0,199.9411115,9.382558287,-99999.0,'11133222,11111222,99999999' 
TABS,ioos:station:wmo:42048:1,2015-08-03T15:00:00Z,27.9396,-96.8429,2.0,240.5021869,10.05310897,-99999.0,'11111222,11111222,99999999' 
TABS,ioos:station:wmo:42048:1,2015-08-03T15:30:00Z,27.9396,-96.8429,2.0,221.7207057,10.87897054,-99999.0,'11111222,11111222,99999999' 
TABS,ioos:station:wmo:42048:1,2015-08-03T16:00:00Z,27.9396,-96.8429,2.0,226.8982922,5.122265124,-99999.0,'11133222,11111222,99999999' 
TABS,ioos:station:wmo:42048:1,2015-08-03T16:30:00Z,27.9396,-96.8429,2.0,196.9671949,7.161745597,-99999.0,'11133222,11111222,99999999' 
TABS,ioos:station:wmo:42048:1,2015-08-03T17:00:00Z,27.9396,-96.8429,2.0,205.5544829,8.62361873,-99999.0,'11133222,11111222,99999999' 
TABS,ioos:station:wmo:42048:1,2015-08-03T17:30:00Z,27.9396,-96.8429,2.0,191.1696709,8.827213603,-99999.0,'11133222,11111222,99999999' 
TABS,ioos:station:wmo:42048:1,2015-08-03T18:00:00Z,27.9396,-96.8429,2.0,188.3155203,6.983423229,-99999.0,'11133222,11111222,99999999' 
TABS,ioos:station:wmo:42048:1,2015-08-03T18:30:00Z,27.9396,-96.8429,2.0,184.3290541,5.696253154,-99999.0,'11133222,11111222,99999999' 
TABS,ioos:station:wmo:42048:1,2015-08-03T19:00:00Z,27.9396,-96.8429,2.0,196.7926054,9.38000533,-99999.0,'11133222,11111222,99999999' 
TABS,ioos:station:wmo:42048:1,2015-08-03T19:30:00Z,27.9396,-96.8429,2.0,195.4990287,9.879271228,-99999.0,'11133222,11111222,99999999' 
TABS,ioos:station:wmo:42048:1,2015-08-03T20:00:00Z,27.9396,-96.8429,2.0,197.9057257,10.96092149,-99999.0,'11111222,11111222,99999999' 
TABS,ioos:station:wmo:42048:1,2015-08-03T20:30:00Z,27.9396,-96.8429,2.0,201.1091305,10.30127177,-99999.0,'11111222,11111222,99999999' 
TABS,ioos:station:wmo:42048:1,2015-08-03T21:00:00Z,27.9396,-96.8429,2.0,211.2264864,7.098401228,-99999.0,'11133222,11111222,99999999' 
TABS,ioos:station:wmo:42048:1,2015-08-03T21:30:00Z,27.9396,-96.8429,2.0,247.6641887,6.97316284,-99999.0,'11133222,11111222,99999999' 
TABS,ioos:station:wmo:42048:1,2015-08-03T22:00:00Z,27.9396,-96.8429,2.0,254.7258512,5.390398872,-99999.0,'11133222,11111222,99999999' 
TABS,ioos:station:wmo:42048:1,2015-08-03T22:30:00Z,27.9396,-96.8429,2.0,277.0636321,8.051099304,-99999.0,'11133222,11111222,99999999' 
TABS,ioos:station:wmo:42048:1,2015-08-03T23:00:00Z,27.9396,-96.8429,2.0,259.8257724,8.605306502,-99999.0,'11133222,11111222,99999999' 
TABS,ioos:station:wmo:42048:1,2015-08-03T23:30:00Z,27.9396,-96.8429,2.0,291.8810813,5.366600414,-99999.0,'11133222,11111222,99999999' 
TABS,ioos:station:wmo:42048:1,2015-08-04T00:00:00Z,27.9396,-96.8429,2.0,329.1029175,4.44010135,-99999.0,'11133222,11111222,99999999' 
TABS,ioos:station:wmo:42048:1,2015-08-04T00:30:00Z,27.9396,-96.8429,2.0,264.6908911,6.809207002,-99999.0,'11133222,11111222,99999999' 
TABS,ioos:station:wmo:42048:1,2015-08-04T01:00:00Z,27.9396,-96.8429,2.0,276.6789207,7.480761993,-99999.0,'11133222,11111222,99999999' 
TABS,ioos:station:wmo:42048:1,2015-08-04T01:30:00Z,27.9396,-96.8429,2.0,314.5137402,6.661186081,-99999.0,'11133222,11111222,99999999' 
TABS,ioos:station:wmo:42048:1,2015-08-04T02:00:00Z,27.9396,-96.8429,2.0,302.8877211,6.335297941,-99999.0,'11133222,11111222,99999999' 
TABS,ioos:station:wmo:42048:1,2015-08-04T02:30:00Z,27.9396,-96.8429,2.0,316.4584354,1.945173514,-99999.0,'11133222,11111222,99999999' 
TABS,ioos:station:wmo:42048:1,2015-08-04T03:00:00Z,27.9396,-96.8429,2.0,259.7048209,5.091974077,-99999.0,'11133222,11111222,99999999' 
TABS,ioos:station:wmo:42048:1,2015-08-04T03:30:00Z,27.9396,-96.8429,2.0,264.1186219,4.684655804,-99999.0,'11133222,11111222,99999999' 
TABS,ioos:station:wmo:42048:1,2015-08-04T04:00:00Z,27.9396,-96.8429,2.0,310.6680118,2.808166662,-99999.0,'11133222,11111222,99999999' 
TABS,ioos:station:wmo:42048:1,2015-08-04T04:30:00Z,27.9396,-96.8429,2.0,223.6379207,4.463104301,-99999.0,'11133222,11111222,99999999' 
TABS,ioos:station:wmo:42048:1,2015-08-04T05:00:00Z,27.9396,-96.8429,2.0,233.5449462,4.140108694,-99999.0,'11133222,11111222,99999999' 
TABS,ioos:station:wmo:42048:1,2015-08-04T05:30:00Z,27.9396,-96.8429,2.0,287.540155,2.02410474,-99999.0,'11133222,11111222,99999999' 
TABS,ioos:station:wmo:42048:1,2015-08-04T06:00:00Z,27.9396,-96.8429,2.0,254.6781048,3.027606315,-99999.0,'11133222,11111222,99999999' 
TABS,ioos:station:wmo:42048:1,2015-08-04T06:30:00Z,27.9396,-96.8429,2.0,338.7726089,2.596150997,-99999.0,'11133222,11111222,99999999' 
TABS,ioos:station:wmo:42048:1,2015-08-04T07:00:00Z,27.9396,-96.8429,2.0,104.8264453,0.351710108,-99999.0,'11133222,11111222,99999999' 
TABS,ioos:station:wmo:42048:1,2015-08-04T07:30:00Z,27.9396,-96.8429,2.0,334.4229795,1.297112177,-99999.0,'11133222,11111222,99999999' 
TABS,ioos:station:wmo:42048:1,2015-08-04T08:00:00Z,27.9396,-96.8429,2.0,26.66880816,2.473095227,-99999.0,'11133222,11111222,99999999' 
TABS,ioos:station:wmo:42048:1,2015-08-04T08:30:00Z,27.9396,-96.8429,2.0,297.94339,3.905304085,-99999.0,'11133222,11111222,99999999' 
TABS,ioos:station:wmo:42048:1,2015-08-04T09:00:00Z,27.9396,-96.8429,2.0,5.869797176,2.15127869,-99999.0,'11133222,11111222,99999999' 
TABS,ioos:station:wmo:42048:1,2015-08-04T09:30:00Z,27.9396,-96.8429,2.0,250.8097232,2.160023148,-99999.0,'11133222,11111222,99999999' 
TABS,ioos:station:wmo:42048:1,2015-08-04T10:00:00Z,27.9396,-96.8429,2.0,275.2996375,3.464808797,-99999.0,'11133222,11111222,99999999' 
TABS,ioos:station:wmo:42048:1,2015-08-04T10:30:00Z,27.9396,-96.8429,2.0,291.1616313,1.994492417,-99999.0,'11133222,11111222,99999999' 
TABS,ioos:station:wmo:42048:1,2015-08-04T11:00:00Z,27.9396,-96.8429,2.0,11.65048265,0.990403958,-99999.0,'11133222,11111222,99999999' 
TABS,ioos:station:wmo:42048:1,2015-08-04T11:30:00Z,27.9396,-96.8429,2.0,29.16487747,4.042499227,-99999.0,'11133222,11111222,99999999' 
TABS,ioos:station:wmo:42048:1,2015-08-04T12:00:00Z,27.9396,-96.8429,2.0,27.43987424,2.929590415,-99999.0,'11133222,11111222,99999999' 
TABS,ioos:station:wmo:42048:1,2015-08-04T12:30:00Z,27.9396,-96.8429,2.0,16.97567023,2.97983221,-99999.0,'11133222,11111222,99999999' 
TABS,ioos:station:wmo:42048:1,2015-08-04T13:00:00Z,27.9396,-96.8429,2.0,29.09543954,2.735141678,-99999.0,'11133222,11111222,99999999' 
TABS,ioos:station:wmo:42048:1,2015-08-04T13:30:00Z,27.9396,-96.8429,2.0,12.09493925,2.29085137,-99999.0,'11133222,11111222,99999999' 
TABS,ioos:station:wmo:42048:1,2015-08-04T14:00:00Z,27.9396,-96.8429,2.0,4.056938834,4.240624954,-99999.0,'11133222,11111222,99999999' 
TABS,ioos:station:wmo:42048:1,2015-08-04T14:30:00Z,27.9396,-96.8429,2.0,78.60126359,1.264950592,-99999.0,'11133222,11111222,99999999' 
TABS,ioos:station:wmo:42048:1,2015-08-04T15:00:00Z,27.9396,-96.8429,2.0,6.431840845,5.534835138,-99999.0,'11133222,11111222,99999999' 
TABS,ioos:station:wmo:42048:1,2015-08-04T15:30:00Z,27.9396,-96.8429,2.0,15.64242034,5.711532194,-99999.0,'11133222,11111222,99999999' 
TABS,ioos:station:wmo:42048:1,2015-08-04T16:00:00Z,27.9396,-96.8429,2.0,44.26918964,7.206004441,-99999.0,'11133222,11111222,99999999' 